DW5678 Kavala GR current weather conditions

sailwx.info

Wind from 057

Air temperature 6.7° C
Dewpoint 0.3° C

Last reported at 2016-Dec-04 21:45 UTC.
Time now 2016-Dec-04 22:30 UTC

Location: N 40°56' E 024°24'.
View on Google Maps.

See reports from other nearby stations

  
Tides and Currents Weather Stations Pressure Air Temp Water Temp Dewpoint Dewpoint Depression Visibility Wind Speed Wind Dir Waves Ship Positions
date/time (UTC)wind fromknots sea level pressurealtimeterstation pressurevisibilityair tempwater tempwave heightnotes
2016-Dec-04 21:45 057 6.7
2016-Dec-04 21:30 057 6.7
2016-Dec-04 21:15 057 6.7
2016-Dec-04 21:00 057 0 gusting 2 7.2
2016-Dec-04 20:30 022 7.2
2016-Dec-04 20:15 022 7.8
2016-Dec-04 20:00 021 0 gusting 4 7.8
2016-Dec-04 19:30 031 0 gusting 5 8.3
2016-Dec-04 19:00 033 0 gusting 4 8.3
2016-Dec-04 18:45 035 0 gusting 4 8.3
2016-Dec-04 18:15 033 2 gusting 6 8.3
2016-Dec-04 18:00 037 2 gusting 6 8.3
2016-Dec-04 17:45 8.3
2016-Dec-04 17:30 034 1 gusting 5 8.3
2016-Dec-04 17:15 041 0 gusting 5 8.3
2016-Dec-04 17:00 002 0 gusting 6 8.3
2016-Dec-04 16:45 033 2 gusting 6 8.3
2016-Dec-04 16:30 311 1 gusting 6 8.3
2016-Dec-04 16:15 025 2 gusting 6 8.3
2016-Dec-04 16:00 037 0 gusting 6 8.3
2016-Dec-04 15:45 030 1 gusting 6 8.3
2016-Dec-04 15:30 033 3 gusting 6 8.3
2016-Dec-04 15:00 033 1 gusting 6 8.3
2016-Dec-04 14:45 038 1 gusting 5 8.3
2016-Dec-04 14:30 037 0 gusting 5 8.9
2016-Dec-04 14:15 041 0 gusting 5 8.9
2016-Dec-04 14:00 042 0 gusting 4 8.9
2016-Dec-04 13:45 040 8.9
2016-Dec-04 13:15 097 8.9
2016-Dec-04 13:00 077 8.9
2016-Dec-04 12:45 119 8.9
2016-Dec-04 12:15 037 0 gusting 2 8.9
2016-Dec-04 12:00 081 0 gusting 6 8.9
2016-Dec-04 11:45 035 8.9
2016-Dec-04 11:15 063 8.9
2016-Dec-04 10:30 026 8.9
2016-Dec-04 10:15 034 0 gusting 5 8.9
2016-Dec-04 10:00 057 1 gusting 6 8.9
2016-Dec-04 09:45 108 0 gusting 6 8.9
2016-Dec-04 09:30 042 0 gusting 6 8.9
2016-Dec-04 08:45 038 8.9
2016-Dec-04 08:00 026 0 gusting 7 8.9
2016-Dec-04 07:45 048 1 gusting 6 8.3
2016-Dec-04 07:30 052 1 gusting 5 8.3
2016-Dec-04 07:15 051 1 gusting 6 8.3
2016-Dec-04 07:00 034 1 gusting 6 8.3
2016-Dec-04 06:45 040 7.8
2016-Dec-04 06:15 023 0 gusting 5 7.8
2016-Dec-04 06:00 043 0 gusting 5 7.8
2016-Dec-04 05:30 035 0 gusting 4 7.8
2016-Dec-04 05:15 025 0 gusting 6 7.8
2016-Dec-04 05:00 009 1 gusting 6 7.8
2016-Dec-04 04:15 046 1 gusting 6 7.2
2016-Dec-04 03:45 032 7.2
2016-Dec-04 03:15 032 7.2
2016-Dec-04 03:00 032 7.2
2016-Dec-04 02:45 032 7.8
2016-Dec-04 02:00 032 7.8
2016-Dec-04 01:00 029 0 gusting 4 7.8
2016-Dec-04 00:45 033 0 gusting 2 7.2
2016-Dec-04 00:30 031 7.2
2016-Dec-04 00:15 032 0 gusting 5 7.2
2016-Dec-04 00:00 024 0 gusting 4 7.2
2016-Dec-03 23:45 023 7.2
2016-Dec-03 23:30 023 0 gusting 2 7.2
2016-Dec-03 23:15 023 7.2
2016-Dec-03 23:00 019 0 gusting 4 7.2
2016-Dec-03 22:45 017 7.2
2016-Dec-03 22:30 017 6.7
2016-Dec-03 22:15 017 6.7
2016-Dec-03 22:00 017 7.2
2016-Dec-03 21:30 017 7.2
2016-Dec-03 21:15 017 7.2
2016-Dec-03 21:00 017 7.8
2016-Dec-03 20:30 017 7.8
2016-Dec-03 20:15 017 8.3
2016-Dec-03 20:00 017 8.3
2016-Dec-03 19:30 029 8.3
2016-Dec-03 19:15 026 0 gusting 2 8.3
2016-Dec-03 19:00 028 8.3
2016-Dec-03 18:45 026 0 gusting 4 8.3
2016-Dec-03 18:30 040 0 gusting 6 8.3
2016-Dec-03 17:45 043 0 gusting 6 8.3
2016-Dec-03 17:30 036 0 gusting 6 8.3
2016-Dec-03 17:15 032 0 gusting 4 8.3
2016-Dec-03 17:00 037 8.3
2016-Dec-03 16:45 003 0 gusting 6 8.9
2016-Dec-03 16:30 024 1 gusting 6 8.9
2016-Dec-03 16:15 012 2 gusting 6 8.9
2016-Dec-03 16:00 005 0 gusting 5 8.9
2016-Dec-03 15:45 036 1 gusting 6 9.4
2016-Dec-03 15:30 273 9.4
2016-Dec-03 15:00 273 10.0
2016-Dec-03 14:45 273 10.0
2016-Dec-03 14:30 273 10.6
2016-Dec-03 14:15 263 10.6
2016-Dec-03 13:15 215 1 gusting 6 11.7
2016-Dec-03 12:45 202 2 gusting 5 12.2
2016-Dec-03 12:00 173 0 gusting 6 11.7
2016-Dec-03 11:45 212 1 gusting 5 11.7
2016-Dec-03 11:30 210 11.7
2016-Dec-03 11:15 213 2 gusting 6 12.2
2016-Dec-03 11:00 204 2 gusting 6 12.2
2016-Dec-03 10:00 264 0 gusting 7 11.7
2016-Dec-03 09:30 148 1 gusting 6 11.7
2016-Dec-03 09:00 226 11.1
2016-Dec-03 08:45 297 0 gusting 6 11.1
2016-Dec-03 08:30 296 0 gusting 6 10.6
2016-Dec-03 08:15 128 1 gusting 5 10.0
2016-Dec-03 07:45 305 9.4
2016-Dec-03 07:30 252 0 gusting 6 8.3
2016-Dec-03 07:15 280 1 gusting 6 8.3
2016-Dec-03 07:00 264 0 gusting 5 8.3
2016-Dec-03 06:15 050 1 gusting 4 7.8
2016-Dec-03 06:00 142 1 gusting 10 7.8
2016-Dec-03 05:00 327 4 gusting 8 7.2
2016-Dec-03 04:45 293 1 gusting 6 7.8
2016-Dec-03 04:00 324 2 gusting 6 8.3
2016-Dec-03 03:30 341 2 gusting 7 8.3
2016-Dec-03 03:15 314 2 gusting 6 8.3
2016-Dec-03 02:45 269 1 gusting 2 8.9
2016-Dec-03 02:15 324 9.4
2016-Dec-03 02:00 333 1 gusting 6 9.4
2016-Dec-03 01:15 239 0 gusting 6 9.4
2016-Dec-03 01:00 336 0 gusting 5 9.4
2016-Dec-03 00:45 313 0 gusting 5 9.4
2016-Dec-03 00:30 340 9.4
2016-Dec-03 00:00 038 0 gusting 2 9.4
2016-Dec-02 23:15 10.0
2016-Dec-02 22:45 339 10.0
2016-Dec-02 22:30 342 0 gusting 4 10.0
2016-Dec-02 22:00 332 9.4